Tekamah, NE

4:02 PM CDT on March 26, 2017 (GMT -0500)
Tekamah

Weather History for KTQE - May, 2012

Change the Weather History Date:

Saturday, May 5, 2012

  Actual Average Record
Temperature  
Mean Temperature 80 °F -  
Max Temperature 93 °F 73 °F 93 °F (1966)
Min Temperature 66 °F 48 °F 30 °F (1954)
Cooling Degree Days 14    
Growing Degree Days 30 (Base 50)    
Moisture  
Dew Point 68 °F    
Average Humidity 74    
Maximum Humidity 94    
Minimum Humidity 39    
Precipitation  
Precipitation 0.03 in - - ()
Sea Level Pressure  
Sea Level Pressure 29.75 in    
Wind  
Wind Speed 12 mph (ESE)    
Max Wind Speed 23 mph    
Max Gust Speed 30 mph    
Visibility 6 miles    
Events Rain , Thunderstorm    
Averages and records for this station are not official NWS values.
T = Trace of Precipitation, MM = Missing Value Source: NWS Daily Summary

Daily Weather History Graph

Daily Weather History Graph

Search for Another Location

Airport or City:

Trip Planner

Search our weather history database for the weather conditions in past years. The results will help you decide how hot, cold, wet, or windy it might be!

Date:

Astronomy

May. 05, 2012 Rise Set
Actual Time 6:15 AM CDT 8:27 PM CDT
Civil Twilight 5:44 AM CDT 8:58 PM CDT
Nautical Twilight 5:06 AM CDT 9:36 PM CDT
Astronomical Twilight 4:25 AM CDT 10:18 PM CDT
Moon 8:22 PM CDT (5/5) 5:38 AM CDT (5/5)
Length of Visible Light 15h 14m
Length of Day
14h 12m
Full, 100% of the Moon is Illuminated
May 5
Full
May 5
Full
May 12
Last Quarter
May 20
New
May 28
First Quarter

Hourly Weather History & Observations

Time (CDT) Temp. Heat Index Dew Point Humidity Pressure Visibility Wind Dir Wind Speed Gust Speed Precip Events Conditions
12:42 AM 71.6 °F - 66.2 °F 83% 29.85 in 5.0 mi NNE 16.1 mph 19.6 mph 0.03 in Rain , Thunderstorm Light Rain
12:54 AM 72.0 °F - 66.9 °F 84% 29.80 in 9.0 mi NE 11.5 mph - 0.03 in Rain , Thunderstorm Light Rain
1:07 AM 73.4 °F - 66.2 °F 78% 29.81 in 8.0 mi ENE 16.1 mph 20.7 mph N/A   Mostly Cloudy
1:23 AM 73.4 °F - 69.8 °F 88% 29.83 in 7.0 mi Calm Calm - N/A   Partly Cloudy
1:40 AM 75.2 °F - 69.8 °F 83% 29.81 in 6.0 mi East 4.6 mph - N/A   Haze
1:54 AM 73.9 °F - 69.1 °F 85% 29.77 in 6.0 mi SE 6.9 mph - N/A   Haze
2:03 AM 73.4 °F - 69.8 °F 88% 29.81 in 6.0 mi SSE 12.7 mph - N/A   Haze
2:54 AM 73.0 °F - 69.1 °F 87% 29.75 in 5.0 mi SW 11.5 mph - N/A   Clear
3:54 AM 72.0 °F - 69.1 °F 91% 29.75 in 4.0 mi North 9.2 mph - N/A   Scattered Clouds
4:05 AM 71.6 °F - 69.8 °F 94% 29.79 in 3.0 mi NNE 9.2 mph - N/A   Mostly Cloudy
4:33 AM 69.8 °F - 66.2 °F 88% 29.79 in 5.0 mi ENE 4.6 mph - N/A   Scattered Clouds
4:54 AM 68.0 °F - 66.0 °F 93% 29.76 in 4.0 mi NNW 6.9 mph - N/A   Clear
5:54 AM 66.0 °F - 63.0 °F 90% 29.77 in 8.0 mi NNW 6.9 mph - N/A   Clear
6:54 AM 66.0 °F - 64.0 °F 93% 29.77 in 3.0 mi North 3.5 mph - N/A   Clear
7:09 AM 66.2 °F - 64.4 °F 94% 29.80 in 2.5 mi NE 3.5 mph - N/A   Clear
7:54 AM 72.0 °F - 70.0 °F 93% 29.78 in 1.8 mi SE 3.5 mph - N/A   Clear
8:14 AM 75.2 °F - 71.6 °F 89% 29.81 in 2.0 mi SE 10.4 mph - N/A   Clear
8:44 AM 75.2 °F - 71.6 °F 89% 29.79 in 2.5 mi SE 13.8 mph - N/A   Haze
8:54 AM 77.0 °F - 71.1 °F 82% 29.75 in 2.5 mi SE 13.8 mph - N/A   Haze
9:10 AM 78.8 °F - 71.6 °F 78% 29.79 in 3.0 mi SE 16.1 mph - N/A   Haze
9:46 AM 78.8 °F - 71.6 °F 78% 29.80 in 4.0 mi SE 12.7 mph - N/A   Haze
9:54 AM 79.0 °F - 71.1 °F 77% 29.76 in 4.0 mi ESE 11.5 mph - N/A   Haze
10:18 AM 80.6 °F 84.6 °F 71.6 °F 74% 29.80 in 4.0 mi ESE 11.5 mph - N/A   Haze
10:32 AM 82.4 °F 87.2 °F 71.6 °F 70% 29.80 in 4.0 mi ESE 12.7 mph - N/A   Haze
10:54 AM 82.0 °F 86.3 °F 71.1 °F 69% 29.75 in 5.0 mi ESE 11.5 mph - N/A   Haze
11:54 AM 86.0 °F 90.7 °F 70.0 °F 59% 29.74 in 5.0 mi SE 17.3 mph - N/A   Haze
12:54 PM 90.0 °F 94.5 °F 69.1 °F 50% 29.73 in 8.0 mi SSE 19.6 mph 26.5 mph N/A   Clear
1:54 PM 91.9 °F 94.5 °F 66.0 °F 42% 29.71 in 9.0 mi SSE 23.0 mph 29.9 mph N/A   Clear
2:54 PM 93.0 °F 95.0 °F 64.9 °F 39% 29.70 in 9.0 mi SSE 18.4 mph 27.6 mph N/A   Clear
3:54 PM 93.0 °F 95.0 °F 64.9 °F 39% 29.68 in 9.0 mi SE 21.9 mph 26.5 mph N/A   Clear
4:54 PM 93.0 °F 95.0 °F 64.9 °F 39% 29.67 in 8.0 mi SSE 16.1 mph 25.3 mph N/A   Clear
5:54 PM 91.9 °F 94.5 °F 66.0 °F 42% 29.67 in 8.0 mi SSE 19.6 mph 27.6 mph N/A   Clear
6:54 PM 91.0 °F 94.3 °F 66.9 °F 45% 29.66 in 8.0 mi SE 21.9 mph 27.6 mph N/A   Clear
7:54 PM 87.1 °F 90.6 °F 68.0 °F 53% 29.67 in 8.0 mi ESE 18.4 mph - N/A   Clear
8:54 PM 84.0 °F 87.0 °F 68.0 °F 58% 29.68 in 9.0 mi SE 20.7 mph - N/A   Clear
9:54 PM 81.0 °F 84.1 °F 69.1 °F 67% 29.69 in 8.0 mi SE 18.4 mph - N/A   Clear
10:54 PM 79.0 °F - 69.1 °F 72% 29.69 in 8.0 mi SE 17.3 mph - N/A   Clear
11:54 PM 78.1 °F - 69.1 °F 74% 29.69 in 8.0 mi SE 17.3 mph - N/A   Mostly Cloudy